SPACEBEE-35 (46934 NORAD) Tracking and Keplerian Element Data

This shows tracking and keplerian element data for the satellite.

Feedback or suggestion? Click here.




ElementValue
Catalog46934
NameSPACEBEE-35
Epoch Orbit848
Epoch Day14.90105015
Epoch Year2021
RAAN154.3926
Inclination97.374
Eccentricity0.0017549
Argument of Perigee105.2076
Mean Anonmoly255.1102
Mean Motion15.21711145
Decay Rate4.627E-05
L11 46934U 20085F 21014.90105015 .00004627 00000-0 20662-3 0 9998
L22 46934 97.3740 154.3926 0017549 105.2076 255.1102 15.21711145 8489

Live tracking and technical data element details for SPACEBEE-35 (NORAD 46934). SPACEBEE-35 can be tracked NOW for your location showing map with azimuth and elevation plus other details from your city location.

Track the satellite on the map from your city or location and see movement details for azimuth, elevation, latitude, longitude, range, height, and movement on the map or in text.







IsCatalogInMostPopularTable: catalog: 46934, numindb: 23
Update: records affected: 1



GetName: 46934 SPACEBEE-35

Hit Count: updated at: Fri, 15 Jan 2021 23:10:45 GMT